Regional Weather Roundup
Issued by NWS

Home | Current Version | Previous Version | Text Only | Print | Product List | Glossary On
Versions: 1 2 3 4 5 6 7 8 9 10 11 12 13 14 15 16 17 18 19 20 21 22 23 24 25 26 27 28 29 30 31 32 33 34 35 36 37 38 39 40 41 42 43 44 45 46 47 48 49 50
000
ASUS45 KBOU 191507
RWRCO

WEATHER ROUNDUP FOR COLORADO
NATIONAL WEATHER SERVICE DENVER/BOULDER CO
800 AM MST SUN FEB 19 2017

NOTE: "FAIR" INDICATES FEW OR NO CLOUDS BELOW 12000 FEET WITH NO
SIGNIFICANT WEATHER AND/OR OBSTRUCTIONS TO VISIBILITY.

COZ001>005-013-030-031-191600-
...NORTHWEST COLORADO...

CITY           SKY/WX    TMP DP  RH WIND       PRES   REMARKS
CRAIG          PTSUNNY   29  26  89 CALM      29.75R
HAYDEN         CLOUDY    30  23  74 E10       29.75R WCI  21
MEEKER         CLOUDY    30  29  96 NE3       29.74R
MOUNT WERNER   NOT AVBL
STEAMBOAT SPGS NOT AVBL
WALDEN         NOT AVBL
$$

COZ006>008-011-191600-
...WEST CENTRAL VALLEYS...

CITY           SKY/WX    TMP DP  RH WIND       PRES   REMARKS
GRAND JUNCTION CLOUDY    37  36  96 CALM      29.73R
MONTROSE       CLOUDY    34  31  88 E3        29.76S
EAGLE          SUNNY     27  27 100 CALM      29.83R
RIFLE          CLOUDY    30  29  96 VRB3      29.75R
DELTA          CLOUDY    37  34  88 N6        29.75S
NUCLA          CLOUDY    34  32  93 N5        29.79R WCI  30
$$

COZ017>023-064>068-191600-
...SOUTHWEST COLORADO...

CITY           SKY/WX    TMP DP  RH WIND       PRES   REMARKS
DURANGO        LGT SNOW  32  32 100 E6        29.82S VSB 1   WCI  26
CORTEZ         LGT RAIN  39  36  89 SW6       29.80R
PAGOSA SPRINGS LGT SNOW  34  34 100 CALM      29.84R
TELLURIDE      CLOUDY    35  23  61 CALM      29.80S
WOLF CREEK PAS SNOW      21  21 100 S12G22    29.91F VSB 1/2 WCI   9
$$

COZ009-010-012-014-032>034-037-058>063-191600-
...CENTRAL COLORADO...

CITY           SKY/WX    TMP DP  RH WIND       PRES   REMARKS
ASPEN          PTSUNNY   29  25  85 CALM      29.76R
BUENA VISTA    PTSUNNY   36  28  72 W7        29.81R
COPPER MTN     CLOUDY    32  10  40 S13       29.89R WCI  22
BERTHOUD PASS  PTSUNNY   21  12  68 W9G16     29.89R WCI  11
COTTONWOOD PAS PTSUNNY   34  25  69 E7        29.85R WCI  28
GUNNISON       FAIR      24  19  81 CALM      29.80F
KREMMLING      FAIR      28  27  93 CALM      29.84R
LEADVILLE      CLOUDY    26  20  77 CALM      29.81S
MONARCH PASS   FAIR      21  19  93 S12G17    29.99R WCI   9
SALIDA         FAIR      41  25  52 W10       29.88S
SUNLIGHT       NOT AVBL
WILKERSON PASS FAIR      28  19  69 SW12G25   29.89F WCI  18
$$

COZ069>075-191600-
...SAN LUIS VALLEY/SANGRE DE CRISTO MOUNTAINS...

CITY           SKY/WX    TMP DP  RH WIND       PRES   REMARKS
ALAMOSA        PTSUNNY   35  28  75 S3        29.81F
LA VETA PASS   FAIR      32  23  69 NE18      29.87R WCI  20
SAGUACHE       FAIR      32  28  86 NW5       29.83S WCI  27
$$

COZ035-036-038>040-191600-
...NORTHERN COLORADO FRONT RANGE...

CITY           SKY/WX    TMP DP  RH WIND       PRES   REMARKS
DENVER INTL AP PTSUNNY   40  24  53 SE5       29.71R
DMNS CITY PARK   N/A     41  25  53 NW5       29.70F
AURORA         PTSUNNY   46  24  42 N3        29.71R
FRONT RANGE AP PTSUNNY   43  27  52 CALM      29.72R
ERIE MUNI ARPT FAIR      33  27  80 W3        29.72R
BOULDER MUN AP FAIR      37  25  60 S3        29.71R
CENTENNIAL     PTSUNNY   49  23  36 SE5       29.71R
BROOMFIELD     PTSUNNY   39  25  56 S3        29.73R
FORT COLLINS   FAIR      37  28  70 S7        29.70R
LONGMONT       FAIR      37  27  67 SW5       29.73R
$$

COZ041-046-047-076>085-087-088-191600-
...PIKES PEAK/PALMER DIVIDE AND SOUTHERN FOOTHILLS...

CITY           SKY/WX    TMP DP  RH WIND       PRES   REMARKS
COLO. SPRINGS  FAIR      43  26  51 N3        29.77R
A. F. ACADEMY  FAIR      38  24  57 N5        29.76R
SCHRIEVER AFB  FAIR      44  26  48 N3        29.76R
ELLICOTT       FAIR     N/A N/A N/A CALM      29.75R
FALCON         NOT AVBL
FORT CARSON    FAIR      41  23  49 NW9       29.74R
LIMON          FAIR      41  30  65 SE9       29.75R
MONUMENT HILL  FAIR      41  27  56 SE6       29.77S
TRINIDAD       FAIR      52  28  39 SW10      29.77R
$$

COZ042>045-048>051-090-091-191600-
...NORTHEAST COLORADO...

CITY           SKY/WX    TMP DP  RH WIND       PRES   REMARKS
GREELEY ARPT   FAIR      34  24  67 CALM      29.71
AKRON          FAIR      44  28  53 W10       29.69R
BURLINGTON     FAIR      53  35  50 S21       29.72R
WRAY           NOT AVBL
STERLING       FAIR      34  28  80 SW5       29.69R WCI  30
HOLYOKE        FAIR      41  32  70 CALM      29.71R
FORT MORGAN    FAIR      35  25  68 W5        29.71R WCI  31
$$

COZ086-089-092>099-191600-
...SOUTHEAST COLORADO...

CITY           SKY/WX    TMP DP  RH WIND       PRES   REMARKS
PUEBLO         FAIR      38  26  62 CALM      29.72R
LA JUNTA       FAIR      52  32  46 S6        29.74R
LAMAR          FAIR      48  35  60 SE16      29.75R
SPRINGFIELD      N/A     49  37  63 S13       29.79R
$$



USA.gov is the U.S. government's official web portal to all federal, state and local government web resources and services.